Regional Weather Roundup
Issued by NWS

Home | Current Version | Previous Version | Graphics & Text | Print | Product List | Glossary On
Versions: 1 2 3 4 5 6 7 8 9 10 11 12 13 14 15 16 17 18 19 20 21 22 23 24 25 26 27 28 29 30 31 32 33 34 35 36 37 38 39 40 41 42 43 44 45 46 47 48 49 50
000
ASUS43 KMKX 181759
RWRWI

WISCONSIN REGIONAL WEATHER ROUNDUP
NATIONAL WEATHER SERVICE MILWAUKEE/SULLIVAN WI
1200 PM CST THU JAN 18 2018

NOTE: "FAIR" INDICATES FEW OR NO CLOUDS BELOW 12,000 FEET WITH NO
SIGNIFICANT WEATHER AND/OR OBSTRUCTIONS TO VISIBILITY.

WIZ001-002-006>008-014>016-023>028-181900-
NORTHWEST WISCONSIN

CITY           SKY/WX    TMP DP  RH WIND       PRES   REMARKS
SUPERIOR ARPT  CLOUDY    34  24  65 SW9       29.76F WCI  27
ASHLAND        NOT AVBL
HAYWARD        FAIR      35  21  56 SW10      29.77F WCI  27
6HR MIN TEMP:  16; 6HR MAX TEMP:  35;

SIREN          FAIR      34  21  58 W12       29.81F WCI  26
CUMBERLAND     FAIR      32  19  59 W10       29.81F WCI  24
RICE LAKE      FAIR      32  21  63 W9        29.84F WCI  24
CHETEK         FAIR      34  19  55 W3        29.83F
LADYSMITH      FAIR      33  21  61 SW10      29.81F WCI  25
6HR MIN TEMP:  17; 6HR MAX TEMP:  33;

EAU CLAIRE     NOT AVBL
MENOMONIE      FAIR      36  21  56 SW10      29.86F WCI  28
6HR MIN TEMP:  22; 6HR MAX TEMP:  36;

NEW RICHMOND   FAIR      32  19  58 SW8       29.85F WCI  25
OSCEOLA        FAIR      36  22  58 SW9       29.87F WCI  29
$$

WIZ003>005-009-010-017-018-181900-
NORTH CENTRAL WISCONSIN

CITY           SKY/WX    TMP DP  RH WIND       PRES   REMARKS
MANITOWISH WTR CLOUDY    27  19  73 SW13G18   29.73F WCI  16
ARBOR VITAE    CLOUDY    29  22  74 W12       29.74F WCI  20
WOODRUFF       CLOUDY    29  22  74 W12       29.74F WCI  20
RHINELANDER    CLOUDY    28  21  75 W10       29.75F WCI  19
6HR MIN TEMP:  17; 6HR MAX TEMP:  28;

EAGLE RIVER    PTSUNNY   26  19  72 W10       29.72F WCI  17
6HR MIN TEMP:  16; 6HR MAX TEMP:  26;

LAND O LAKES   CLOUDY    28  20  72 SW10      29.72F WCI  19
PHILLIPS       FAIR      29  20  68 SW9       29.76F WCI  21
6HR MIN TEMP:  20; 6HR MAX TEMP:  29;

TOMAHAWK       CLOUDY    28  19  71 W5        29.79F WCI  22
MEDFORD        FAIR      28  18  66 SW10      29.81F WCI  19
MERRILL        CLOUDY    29  20  66 W5        29.81F WCI  24
6HR MIN TEMP:  19; 6HR MAX TEMP:  29;

$$

WIZ029-030-035-036-043>047-181900-
CENTRAL WISCONSIN

CITY           SKY/WX    TMP DP  RH WIND       PRES   REMARKS
WAUSAU         FAIR      30  19  63 W8        29.80F WCI  22
6HR MIN TEMP:  18; 6HR MAX TEMP:  30;

MOSINEE        MOSUNNY   28  19  69 SW12      29.84F WCI  18
MARSHFIELD     FAIR      29  18  63 W12       29.82F WCI  19
6HR MIN TEMP:  17; 6HR MAX TEMP:  29;

STEVENS POINT  FAIR      27  17  65 SW10      29.86F WCI  18
WAUPACA        FAIR      31  19  59 SW8       29.89F WCI  24
WAUTOMA        FAIR      31  19  61 SW14      29.89F WCI  21
6HR MIN TEMP:  17; 6HR MAX TEMP:  31;

WISC RAPIDS    FAIR      30  17  58 SW15      29.86F WCI  19
6HR MIN TEMP:  17; 6HR MAX TEMP:  30;

CAMP DOUGLAS   MOSUNNY   32  19  59 W10       29.89F WCI  24
$$

WIZ011>013-019>022-031-037>040-048>050-181900-
NORTHEAST WISCONSIN

CITY           SKY/WX    TMP DP  RH WIND       PRES   REMARKS
ANTIGO         FAIR      25  18  76 SW12      29.79F WCI  14
SHAWANO        FAIR      29  19  64 SW10G17   29.84F WCI  20
6HR MIN TEMP:  21; 6HR MAX TEMP:  29;

OCONTO         FAIR      26  17  68 SW13      29.86F WCI  14
STURGEON BAY   FAIR      27  19  72 SW12      29.84F WCI  17
6HR MIN TEMP:  19; 6HR MAX TEMP:  28;

GREEN BAY      FAIR      26  18  71 SW8       29.87F WCI  18
6HR MIN TEMP:  18; 6HR MAX TEMP:  26;

MANITOWOC      FAIR      29  19  66 SW7       29.90F WCI  22
6HR MIN TEMP:  21; 6HR MAX TEMP:  29;

APPLETON       PTSUNNY   23  16  74 SW14      29.86F WCI  11
CLINTONVILLE   FAIR      28  18  64 W10       29.87F WCI  19
OSHKOSH        FAIR      27  18  69 SW15      29.88F WCI  15
6HR MIN TEMP:  20; 6HR MAX TEMP:  27;

$$

WIZ032>034-041-042-053>061-181900-
SOUTHWEST WISCONSIN

CITY           SKY/WX    TMP DP  RH WIND       PRES   REMARKS
LA CROSSE      FAIR      30  19  63 S10       29.93F WCI  21
6HR MIN TEMP:  19; 6HR MAX TEMP:  30;

SPARTA         FAIR      32  19  58 SW8       29.93F WCI  25
VIROQUA        FAIR      27  20  72 SW15      29.93F WCI  16
6HR MIN TEMP:  16; 6HR MAX TEMP:  27;

BOSCOBEL       FAIR      30  17  58 SW12      30.01F WCI  20
6HR MIN TEMP:  15; 6HR MAX TEMP:  30;

PRAIRIE DU CHI FAIR      28  15  57 SW10      30.02F WCI  19
PLATTEVILLE    FAIR      27  17  68 SW15      30.02F WCI  15
$$

WIZ056-057-062-063-064-067-068-181900-
SOUTH CENTRAL WISCONSIN

CITY           SKY/WX    TMP DP  RH WIND       PRES   REMARKS
REEDSBURG      FAIR      27  17  65 SW14      29.94F WCI  16
BARABOO/DELLS  FAIR      28  17  63 SW14G22   29.92F WCI  17
LONE ROCK      NOT AVBL
MINERAL POINT  FAIR      28  19  69 SW13      29.99F WCI  18
MADISON        FAIR      27  16  63 SW9       29.98F WCI  18
6HR MIN TEMP:  18; 6HR MAX TEMP:  27;

MIDDLETON      FAIR      29  17  61 SW14      29.98F WCI  18
WATERTOWN      NOT AVBL
MONROE         FAIR      25  14  63 SW21      30.00F WCI  10
JANESVILLE     SUNNY     27  16  63 SW13      30.02F WCI  16
$$

WIZ051-052-058>065-066-070>072-181900-
SOUTHEAST WISCONSIN

CITY           SKY/WX    TMP DP  RH WIND       PRES   REMARKS
MILWAUKEE      PTSUNNY   29  16  58 W20G28    29.98F WCI  16
6HR MIN TEMP:  19; 6HR MAX TEMP:  30;

WAUKESHA       SUNNY     27  14  59 SW17G23   29.98F WCI  14
MILWAUKEE/TIMM SUNNY     27  14  59 SW18G26   29.98F WCI  13
RACINE         FAIR      26  15  63 W17G28    29.99F WCI  13
6HR MIN TEMP:  19; 6HR MAX TEMP:  26;

BURLINGTON     FAIR      26  15  61 SW16      30.01F WCI  14
KENOSHA        FAIR      27  15  61 SW21G30   30.00F WCI  13
6HR MIN TEMP:  17; 6HR MAX TEMP:  27;

FOND DU LAC    FAIR      27  16  63 SW16      29.90F WCI  15
6HR MIN TEMP:  19; 6HR MAX TEMP:  27;

SHEBOYGAN      FAIR      27  19  72 SW14      29.89F WCI  16
6HR MIN TEMP:  20; 6HR MAX TEMP:  27;

WEST BEND      FAIR      28  18  64 SW10      29.94F WCI  19
JUNEAU         FAIR      25  17  71 SW17      29.97F WCI  12
$$

LSZ147-162-181900-
LAKE SUPERIOR

STATION/POSITION TIME  TEMP    WIND        PRES    WAVE
                       AIR SEA DIR/SP/G            HT/PER
                 (UTC) (F)     (DEG/KT/KT) (MB)    (FT/S)
DEVILS ISLAND    1700   32     240/ 17/ 21 1007.3R
SAXON HARBOR     1740   34     220/  8/ 14 1007.1F
$$

LMZ867-665-643>646-181900-
LAKE MICHIGAN

STATION/POSITION TIME  TEMP    WIND        PRES    WAVE
                       AIR SEA DIR/SP/G            HT/PER
                 (UTC) (F)     (DEG/KT/KT) (MB)    (FT/S)
NORTHPORT PIER   1740   26     180/ 13/ 26 1009.5F
KEWAUNEE LAKESHO 1730   27     220/  9/ 12 1011.6R
SHEBOYGAN LAKESH 1700   25     220/ 12/ 14 1014.9F
PORT WASHINGTON  1740   29     250/  9/ 16 1015.2F
MILWAUKEE LAKESH 1730   27     250/ 12/ 14   N/A
KENOSHA   LAKESH 1700   24     240/ 10/ 19 1017.6
$$

TC  - TEMPERATURE IN CELSIUS
VSB - VISIBILITY IN STATUTE MILES
WCI - WIND CHILL INDEX
HX  - HEAT INDEX





USA.gov is the U.S. government's official web portal to all federal, state and local government web resources and services.